Regional Weather Roundup
Issued by NWS

Home | Current Version | Previous Version | Text Only | Print | Product List | Glossary Off
Versions: 1 2 3 4 5 6 7 8 9 10 11 12 13 14 15 16 17 18 19 20 21 22 23 24 25 26 27 28 29 30 31 32 33 34 35 36 37 38 39 40 41 42 43 44 45 46 47 48 49 50

000
ASUS43 KFSD 011910
RWRSD

WEATHER ROUNDUP FOR SOUTH DAKOTA
NATIONAL WEATHER SERVICE SIOUX FALLS SD
200 PM CDT MON SEP 01 2014

NOTE: "FAIR" INDICATES FEW OR NO CLOUDS BELOW 12,000 FEET WITH NO
SIGNIFICANT WEATHER AND/OR OBSTRUCTIONS TO VISIBILITY.


SDZ001>005-009-010-012>017-012000-
NORTHWEST AND NORTH CENTRAL SOUTH DAKOTA

CITY           SKY/WX    TMP DP  RH WIND       PRES   REMARKS
BUFFALO          N/A     68  45  43 NW12G17   29.85F
FAITH            N/A     73  52  47 NW14      29.87F
MOBRIDGE       SUNNY     74  54  49 NW7       29.80F
$$

SDZ012>016-024>037-041>051-057-063-072>074-012000-
SOUTHWEST AND SOUTH CENTRAL SOUTH DAKOTA

CITY           SKY/WX    TMP DP  RH WIND       PRES   REMARKS
RAPID CTY ARPT PTSUNNY   72  47  40 N12       29.92F
PIERRE         PTSUNNY   76  55  48 SW7G17    29.82F
CUSTER         CLOUDY    59  39  47 VRB7G20   30.01F
ELLSWORTH AFB  PTSUNNY   71  45  39 N16G24    29.92F
PHILIP         SUNNY     76  49  38 W14       29.88S
PINE RIDGE     SUNNY     74  48  39 W9        29.92F
WINNER         FAIR      77  50  38 VRB5      29.89F
$$

SDZ004>011-016>023-039-040-012000-
NORTHEAST SOUTH DAKOTA

CITY           SKY/WX    TMP DP  RH WIND       PRES   REMARKS
ABERDEEN       SUNNY     75  54  47 W8        29.80S
WATERTOWN      SUNNY     74  54  49 W13       29.83R
SISSETON         N/A     76  55  48 VRB5      29.77S
$$

SDZ017-020-022-023-036>040-048>070-012000-
SOUTHEAST SOUTH DAKOTA

CITY           SKY/WX    TMP DP  RH WIND       PRES   REMARKS
SIOUX FALLS    MOSUNNY   75  60  59 NW12      29.84S
HURON          MOSUNNY   75  54  47 VRB7      29.83F
CHAMBERLAIN    PTSUNNY   75  53  47 SW7       29.87F
MITCHELL       MOSUNNY   75  58  55 NW9       29.86S
YANKTON        MOSUNNY   75  61  60 W10G16    29.85S
$$

ABBREVIATIONS USED IN REMARKS
   TC - TEMPERATURE IN CELSIUS
  WCI - WIND CHILL INDEX
   HX - HEAT INDEX
  VSB - VISIBILITY



USA.gov is the U.S. government's official web portal to all federal, state and local government web resources and services.